#datint,netname,site,siteID,timestamp,IntT,BattV,AirT2,AirT,AirT_Avg,AirT_Max,AirT_Min,RH_Avg,RH_Max,RH_Min,EA_Avg,Td_Avg,Td_Max,Td_Min,WindS_Smp,WindS_Avg,WindD_Avg,WindD_SD,WindS_Max,ETo,ETr,SoilT4,SoilT8,SoilVWC8,SolarW_Avg,wetstate_Avg,wetT_Avg,Precip_accum,Precip_WPG,Precip_TB
15min,AgWx,beryljct,423,19AUG2018:01:00:00,60.9,12.98,58.4,61.6,57.8,63.6,56.1,59,69,36,0.896,43.2,46.0,35.3,0.767,2.9,211,9.7,4.5,0.00016,0.00025,76.4,77.5,16,0,0,55.7,16.49,0.00,0.00
15min,AgWx,beryljct,423,19AUG2018:01:15:00,60.6,12.98,64.8,67.0,63.9,67.6,58.6,40,58,29,0.738,38.6,44.3,33.6,1.425,1.0,142,44,2.9,0.00003,0.00007,76.1,76.9,16,0,0,59.1,16.49,0.00,0.00
15min,AgWx,beryljct,423,19AUG2018:01:30:00,60.8,12.97,65.2,64.0,65.3,66.8,63.7,36,45,30,0.824,37.5,42.4,34.1,1.622,0.8,70,1.1,2.0,-0.00000,0.00002,75.8,77.3,16,0,0,60.6,16.49,0.00,0.00
15min,AgWx,beryljct,423,19AUG2018:01:45:00,60.5,12.96,63.0,64.3,62.8,65.9,58.5,44,62,31,0.710,40.2,45.8,32.8,1.666,2.0,80,0.0,2.9,0.00016,0.00027,75.5,77.2,16,0,0,60.1,16.49,0.00,0.00
15min,AgWx,beryljct,423,19AUG2018:02:00:00,60.1,12.97,62.3,60.7,62.7,68.2,59.1,45,59,27,0.907,40.3,45.3,32.3,0,0.5,80,0.0,1.8,-0.00005,-0.00006,75.2,77.1,16,0,0,59.8,16.49,0.00,0.00
15min,AgWx,beryljct,423,19AUG2018:02:15:00,59.6,12.96,66.6,68.2,65.5,68.3,60.7,33,50,26,0.628,35.1,41.9,32.0,0.504,0.4,79,0.1,1.1,-0.00008,-0.00011,74.9,77.0,16,0,0,60.2,16.49,0.00,0.00
15min,AgWx,beryljct,423,19AUG2018:02:30:00,59.5,12.95,68.2,68.9,67.9,69.2,66.3,28,36,26,0.644,33.7,38.7,32.4,3.288,1.0,39,45,3.5,0.00006,0.00013,74.6,76.9,16,0,0,62.4,16.49,0.00,0.00
15min,AgWx,beryljct,423,19AUG2018:02:45:00,59.7,12.93,61.2,60.6,62.1,68.9,59.3,46,58,27,0.873,40.9,44.7,33.6,2.455,2.6,321,0.9,3.5,0.00023,0.00036,74.3,76.8,16,0,0,59.9,16.49,0.00,0.00
15min,AgWx,beryljct,423,19AUG2018:03:00:00,59.2,12.93,59.8,56.5,60.2,61.6,56.5,48,61,42,0.952,40.2,43.3,38.0,1.513,2.4,318,0.3,3.7,0.00019,0.00030,74.1,76.7,16,0,0,56.8,16.49,0.00,0.00
15min,AgWx,beryljct,423,19AUG2018:03:15:00,58.5,12.92,59.0,59.7,58.5,60.3,56.3,49,62,41,0.758,39.1,43.4,36.3,2.061,2.6,319,2.6,3.7,0.00019,0.00029,73.8,76.5,16,0,0,55.3,16.49,0.00,0.00
15min,AgWx,beryljct,423,19AUG2018:03:30:00,58.0,12.92,60.3,59.9,60.1,62.6,58.5,43,49,33,0.692,37.3,39.7,32.9,0,0.9,322,0.3,2.2,0.00001,0.00003,73.5,76.4,16,0,0,56.1,16.49,0.00,0.00
15min,AgWx,beryljct,423,19AUG2018:03:45:00,57.5,12.91,59.1,59.2,59.1,61.0,56.4,46,58,37,0.783,38.3,42.2,34.6,4.077,1.1,148,37,5.0,0.00002,0.00006,73.3,76.3,16,0,0,55.5,16.49,0.00,0.00
15min,AgWx,beryljct,423,19AUG2018:04:00:00,57.0,12.9,56.8,58.8,56.7,59.0,55.5,50,58,39,0.672,38.4,41.4,33.7,3.091,3.8,339,7.4,5.6,0.00027,0.00039,73.0,76.2,16,0,0,54.7,16.49,0.00,0.00
15min,AgWx,beryljct,423,19AUG2018:04:15:00,56.4,12.89,55.4,55.8,55.4,58.6,54.5,50,56,41,0.656,36.8,39.4,33.8,2.718,2.2,339,7.0,3.3,0.00014,0.00023,72.8,76.0,16,0,0,53.3,16.49,0.00,0.00
15min,AgWx,beryljct,423,19AUG2018:04:30:00,55.8,12.89,55.5,54.4,55.5,56.7,54.2,48,57,40,0.762,36.1,39.7,32.9,1.578,2.7,327,6.0,3.7,0.00019,0.00030,72.5,75.9,16,0,0,53.0,16.49,0.00,0.00
15min,AgWx,beryljct,423,19AUG2018:04:45:00,55.2,12.89,55.5,55.9,55.2,56.2,54.3,48,56,43,0.712,36.0,39.0,33.7,3.025,2.4,319,1.1,3.4,0.00015,0.00024,72.3,75.8,16,0,0,52.2,16.49,0.00,0.00
15min,AgWx,beryljct,423,19AUG2018:05:00:00,55.1,12.88,56.7,54.8,56.6,58.4,54.8,47,55,39,0.810,36.4,39.1,33.5,1.535,3.0,328,6.7,5.0,0.00023,0.00034,72.0,75.6,16,0,0,53.8,16.49,0.00,0.00
15min,AgWx,beryljct,423,19AUG2018:05:15:00,54.7,12.89,55.3,55.6,55.1,57.2,52.6,54,65,45,0.769,38.6,41.3,35.8,0.11,0.2,329,0.5,1.4,-0.00010,-0.00016,71.8,75.5,16,0,0,51.4,16.49,0.00,0.00
15min,AgWx,beryljct,423,19AUG2018:05:30:00,54.1,12.88,54.7,52.5,54.8,56.9,52.5,55,66,44,0.883,38.9,41.8,35.1,0.636,0.1,330,0.2,0.7,-0.00012,-0.00019,71.5,74.9,16,0,0,50.9,16.49,0.00,0.00
15min,AgWx,beryljct,423,19AUG2018:05:45:00,53.5,12.88,51.7,51.8,51.6,53.1,50.7,67,74,58,0.804,40.8,43.1,38.5,0.986,1.0,264,30,1.7,-0.00003,-0.00003,71.3,75.2,16,0,0,49.5,16.49,0.00,0.00
15min,AgWx,beryljct,423,19AUG2018:06:00:00,52.8,12.87,51.4,51.5,51.2,52.2,50.3,67,73,59,0.863,40.8,42.5,38.2,0,0.3,251,0.0,0.9,-0.00009,-0.00014,71.0,75.1,16,0,0,48.5,16.49,0.00,0.00
15min,AgWx,beryljct,423,19AUG2018:06:15:00,52.3,12.85,51.3,49.8,51.3,52.5,49.8,68,73,63,0.825,41.1,42.4,39.0,3.201,1.6,222,30,6.6,0.00014,0.00024,70.8,75.0,16,0,0,48.8,16.49,0.00,0.00
15min,AgWx,beryljct,423,19AUG2018:06:30:00,51.7,12.87,49.7,50.3,49.4,50.3,48.4,67,72,62,0.772,39.0,40.5,37.7,0,1.3,178,0.2,3.2,0.00011,0.00020,70.6,74.8,16,0,0,47.2,16.49,0.00,0.00
15min,AgWx,beryljct,423,19AUG2018:06:45:00,51.1,12.86,50.3,49.7,50.1,51.0,49.0,66,76,59,0.854,39.3,42.0,37.1,1.206,1.8,168,9.7,4.8,0.00016,0.00027,70.3,74.7,16,1,0,47.1,16.49,0.00,0.00
15min,AgWx,beryljct,423,19AUG2018:07:00:00,50.7,12.86,49.4,49.3,49.2,50.5,48.3,69,77,60,0.825,39.4,41.4,36.3,1.425,1.8,159,0.0,2.9,0.00017,0.00027,70.1,74.5,16,4,0,47.6,16.49,0.00,0.00
15min,AgWx,beryljct,423,19AUG2018:07:15:00,50.7,12.87,50.8,48.3,50.7,53.9,48.3,65,78,49,0.892,39.2,41.6,35.4,2.959,1.9,150,6.9,4.3,0.00026,0.00039,69.9,74.4,16,17,0,50.4,16.49,0.00,0.00
15min,AgWx,beryljct,423,19AUG2018:07:30:00,50.7,12.89,48.6,48.6,48.5,49.0,47.9,77,82,73,0.943,41.7,43.3,40.2,2.718,1.4,154,8.4,3.6,0.00032,0.00039,69.7,74.3,16,43,0,51.6,16.49,0.00,0.00
15min,AgWx,beryljct,423,19AUG2018:07:45:00,50.8,12.91,49.7,50.7,49.3,50.8,48.4,81,83,77,0.965,43.5,44.8,42.4,1.71,1.4,144,0.3,3.6,0.00050,0.00057,69.4,74.1,16,79,0,56.5,16.49,0.00,0.00
15min,AgWx,beryljct,423,19AUG2018:08:00:00,51.8,12.92,52.5,53.6,52.0,53.7,50.8,75,81,67,0.960,44.3,45.5,42.8,0.855,1.4,163,0.1,2.8,0.00071,0.00082,69.2,74.0,16,119,0,63.0,16.49,0.00,0.00
15min,AgWx,beryljct,423,19AUG2018:08:15:00,53.5,12.93,55.4,56.3,55.0,56.5,53.7,76,81,68,1.255,47.6,50.6,43.6,0,0.2,163,0.0,1.1,0.00092,0.00099,69.0,73.9,16,164,0,72.0,16.49,0.00,0.00
15min,AgWx,beryljct,423,19AUG2018:08:30:00,55.7,13,57.4,57.5,57.1,57.9,56.3,80,85,71,1.317,50.9,52.9,48.1,0.745,0.4,163,0.0,1.8,0.00121,0.00130,68.9,72.3,15,212,0,77.0,16.49,0.00,0.00
15min,AgWx,beryljct,423,19AUG2018:08:45:00,58.1,13.11,59.2,60.4,58.8,60.4,57.5,66,83,48,0.867,47.3,52.4,40.6,3.551,2.6,303,87,4.2,0.00162,0.00189,68.7,73.6,16,262,0,76.7,16.49,0.00,0.00
15min,AgWx,beryljct,423,19AUG2018:09:00:00,60.6,13.28,62.2,62.7,62.0,62.7,60.4,50,59,45,1.106,42.9,47.8,39.9,1.929,3.3,350,11,4.1,0.00213,0.00260,68.6,73.4,15,314,0,78.4,16.49,0.00,0.00
15min,AgWx,beryljct,423,19AUG2018:09:15:00,63.2,13.52,64.1,65.1,63.8,65.1,62.8,51,58,42,0.925,45.6,48.7,41.0,2.477,2.7,334,4.8,3.6,0.00241,0.00283,68.5,73.3,15,364,0,84.2,16.48,0.00,0.00
15min,AgWx,beryljct,423,19AUG2018:09:30:00,65.8,13.75,65.9,66.3,65.8,66.3,65.1,43,48,37,0.998,42.8,45.3,38.7,1.71,2.2,339,4.9,3.1,0.00276,0.00320,68.5,73.2,15,414,0,88.7,16.48,0.00,0.00
15min,AgWx,beryljct,423,19AUG2018:09:45:00,68.3,14.17,67.2,67.7,67.1,67.9,66.3,42,48,36,0.995,43.3,46.6,39.6,1.25,1.7,330,5.0,2.9,0.00306,0.00349,68.4,73.0,15,464,0,94.8,16.48,0.00,0.00
15min,AgWx,beryljct,423,19AUG2018:10:00:00,70.7,14.09,68.9,69.3,68.8,69.9,67.7,43,50,37,1.094,45.2,49.7,41.4,1.25,2.0,350,41,3.9,0.00323,0.00369,68.5,72.9,15,473,0,98.2,16.47,0.00,0.00
15min,AgWx,beryljct,423,19AUG2018:10:15:00,72.8,14.09,70.2,70.7,70.1,70.9,69.3,41,51,31,0.969,45.1,50.5,38.8,3.025,2.6,39,15,4.1,0.00386,0.00445,68.6,72.8,15,562,0,98.8,16.47,0.00,0.00
15min,AgWx,beryljct,423,19AUG2018:10:30:00,74.6,14.04,71.5,71.7,71.5,72.4,70.5,39,55,28,1.144,44.8,54.8,36.6,0.417,2.6,37,11,6.1,0.00423,0.00488,68.7,72.7,15,608,0,99.6,16.46,0.00,0.00
15min,AgWx,beryljct,423,19AUG2018:10:45:00,76.6,14,72.3,73.2,72.2,73.2,71.7,41,48,34,1.061,47.2,51.8,42.2,2.061,0.4,53,15,5.4,0.00433,0.00467,68.9,72.6,15,651,0,110.0,16.46,0.00,0.00
15min,AgWx,beryljct,423,19AUG2018:11:00:00,78.3,13.96,74.3,74.9,74.3,75.4,73.3,38,48,31,1.120,47.1,53.0,42.6,0,1.3,15,40,4.3,0.00475,0.00526,69.2,72.5,15,689,0,109.2,16.46,0.00,0.00
15min,AgWx,beryljct,423,19AUG2018:11:15:00,79.8,14.01,76.0,76.2,76.1,77.4,74.8,36,47,26,1.206,46.9,53.8,39.5,2.455,3.0,9.1,21,8.1,0.00524,0.00603,69.5,72.5,15,725,0,107.8,16.46,0.00,0.00
15min,AgWx,beryljct,423,19AUG2018:11:30:00,80.8,13.98,76.7,77.7,76.8,78.1,76.0,33,43,23,1.181,45.6,52.7,37.2,4.516,4.7,25,18,8.1,0.00571,0.00680,69.9,72.4,15,762,0,103.3,16.45,0.00,0.00
15min,AgWx,beryljct,423,19AUG2018:11:45:00,81.4,13.88,77.2,76.6,77.5,79.0,76.6,34,45,24,1.258,46.7,53.9,38.5,5.678,5.5,28,18,9.1,0.00603,0.00722,70.3,72.4,15,795,0,102.3,16.45,0.00,0.00
15min,AgWx,beryljct,423,19AUG2018:12:00:00,82.1,13.88,78.8,79.2,78.8,80.8,76.7,30,43,22,1.298,44.5,53.5,36.7,4.911,5.4,25,19,9.1,0.00633,0.00760,70.8,72.4,15,825,0,103.6,16.45,0.00,0.00
15min,AgWx,beryljct,423,19AUG2018:12:15:00,82.9,13.47,78.2,78.4,78.5,79.4,77.9,35,41,25,1.317,48.9,53.5,40.8,4.077,5.4,51,20,11.6,0.00643,0.00763,71.3,72.4,15,852,0,104.4,16.45,0.00,0.00
15min,AgWx,beryljct,423,19AUG2018:12:30:00,83.3,13.5,78.5,78.9,78.6,79.2,78.0,37,46,24,1.366,49.8,56.2,39.0,3.617,4.8,81,20,8.2,0.00648,0.00760,71.9,72.4,15,870,0,105.9,16.45,0.00,0.00
15min,AgWx,beryljct,423,19AUG2018:12:45:00,83.8,13.45,79.3,79.6,79.5,79.9,79.0,36,49,24,1.163,50.1,58.2,39.4,5.152,5.3,96,15,8.4,0.00670,0.00790,72.5,72.4,15,891,0,107.4,16.45,0.00,0.00
15min,AgWx,beryljct,423,19AUG2018:13:00:00,84.4,13.51,80.0,80.7,80.2,81.1,79.5,36,48,23,1.370,50.9,58.3,39.1,3.179,4.0,85,15,6.7,0.00670,0.00774,73.2,72.5,15,902,0,108.8,16.45,0.00,0.00
15min,AgWx,beryljct,423,19AUG2018:13:15:00,85.1,13.43,80.8,81.2,81.0,81.8,80.4,35,46,22,1.139,50.5,58.1,39.3,1.973,4.1,92,15,7.0,0.00681,0.00790,73.9,72.5,15,911,0,110.1,16.45,0.00,0.00
15min,AgWx,beryljct,423,19AUG2018:13:30:00,85.8,13.41,81.6,81.9,81.8,82.3,81.2,33,46,20,1.351,49.3,58.9,36.6,5.853,3.7,115,15,6.4,0.00687,0.00792,74.6,72.6,15,920,0,111.7,16.45,0.00,0.00
15min,AgWx,beryljct,423,19AUG2018:13:45:00,86.2,13.4,81.9,83.2,82.0,83.6,80.9,33,44,21,1.057,49.7,58.0,38.8,3.223,3.7,88,24,6.8,0.00684,0.00790,75.3,72.7,15,913,0,110.2,16.45,0.00,0.00
15min,AgWx,beryljct,423,19AUG2018:14:00:00,87.0,13.35,83.0,83.2,83.3,84.2,82.6,33,49,22,1.434,51.1,61.6,40.4,3.354,2.5,98,42,8.1,0.00672,0.00758,76.0,72.9,15,906,0,114.0,16.45,0.00,0.00
15min,AgWx,beryljct,423,19AUG2018:14:15:00,88.0,13.36,83.7,85.9,83.7,85.9,82.2,30,47,16,0.668,48.6,60.1,34.2,5.722,3.8,28,51,6.6,0.00683,0.00793,76.8,73.0,15,899,0,110.6,16.45,0.00,0.00
15min,AgWx,beryljct,423,19AUG2018:14:30:00,89.5,13.34,86.5,85.8,86.7,87.4,85.8,17,34,13,1.111,36.2,54.0,29.8,0,2.1,323,45,5.7,0.00687,0.00780,77.5,73.2,15,923,0,114.0,16.45,0.00,0.00
15min,AgWx,beryljct,423,19AUG2018:14:45:00,91.3,13.3,85.3,85.4,85.7,87.4,85.0,28,43,17,1.348,48.8,60.2,36.3,3.771,1.3,166,11,3.8,0.00657,0.00723,78.2,73.4,15,898,0,120.5,16.45,0.00,0.00
15min,AgWx,beryljct,423,19AUG2018:15:00:00,92.1,13.35,84.3,84.5,84.6,85.6,84.0,31,43,21,1.258,50.7,59.4,40.4,4.932,3.6,152,13,5.5,0.00673,0.00779,78.9,73.6,15,881,0,111.5,16.45,0.00,0.00
15min,AgWx,beryljct,423,19AUG2018:15:15:00,92.3,13.31,84.5,85.8,84.7,85.8,84.1,30,44,17,0.918,49.2,59.8,36.0,1.513,3.2,128,21,5.4,0.00649,0.00750,79.5,73.8,15,856,0,109.8,16.45,0.00,0.00
15min,AgWx,beryljct,423,19AUG2018:15:30:00,92.5,13.25,84.9,85.4,85.2,86.3,84.2,31,47,14,1.455,50.2,62.9,30.8,3.244,2.7,118,15,5.1,0.00614,0.00703,80.0,74.0,15,817,0,111.3,16.45,0.00,0.00
15min,AgWx,beryljct,423,19AUG2018:15:45:00,92.5,13.2,84.3,84.2,84.7,86.1,83.9,35,48,16,1.513,53.0,62.8,33.6,3.464,3.5,103,21,7.2,0.00602,0.00699,80.5,74.2,15,789,0,107.3,16.45,0.00,0.00
15min,AgWx,beryljct,423,19AUG2018:16:00:00,92.6,13.2,84.6,84.6,84.9,86.5,83.9,33,49,15,1.391,51.0,62.7,32.6,4.143,3.7,126,27,8.3,0.00574,0.00674,80.8,74.4,15,748,0,105.7,16.45,0.00,0.00
15min,AgWx,beryljct,423,19AUG2018:16:15:00,92.5,13.24,84.5,84.8,84.8,85.5,83.8,35,47,22,1.784,54.1,62.1,42.4,3.442,3.0,141,16,5.1,0.00530,0.00615,81.0,74.7,15,702,0,104.2,16.45,0.00,0.00
15min,AgWx,beryljct,423,19AUG2018:16:30:00,92.0,13.2,82.9,82.2,83.4,84.8,82.1,42,51,27,1.765,57.7,63.0,47.3,5.064,5.0,93,8.4,7.0,0.00515,0.00619,81.2,74.9,15,661,0,99.0,16.45,0.00,0.00
15min,AgWx,beryljct,423,19AUG2018:16:45:00,91.2,13.23,82.3,82.3,82.6,83.3,81.9,43,51,33,1.702,57.9,62.8,50.6,3.793,4.2,96,6.1,6.2,0.00480,0.00569,81.2,75.1,15,633,0,97.1,16.46,0.00,0.00
15min,AgWx,beryljct,423,19AUG2018:17:00:00,90.8,13.23,82.5,82.7,82.7,84.0,82.2,41,50,27,1.560,56.4,61.7,46.3,4.867,4.2,105,8.4,6.2,0.00453,0.00544,81.3,75.3,15,593,0,96.7,16.46,0.00,0.00
15min,AgWx,beryljct,423,19AUG2018:17:15:00,90.4,13.25,83.1,84.5,83.2,84.5,82.1,36,46,23,1.239,52.8,59.7,42.8,3.836,4.7,97,18,7.6,0.00423,0.00524,81.5,75.5,15,538,0,94.6,16.46,0.00,0.00
15min,AgWx,beryljct,423,19AUG2018:17:30:00,90.1,13.26,83.7,86.3,83.7,86.5,82.2,33,47,17,0.922,51.0,60.0,36.7,5.524,4.6,112,11,9.7,0.00394,0.00495,81.7,75.6,15,495,0,94.0,16.46,0.00,0.00
15min,AgWx,beryljct,423,19AUG2018:17:45:00,89.7,13.28,82.4,83.2,82.8,86.3,81.3,43,53,22,1.772,57.9,62.9,42.7,4.143,4.0,114,6.4,5.7,0.00345,0.00424,81.9,75.8,15,452,0,92.3,16.46,0.00,0.00
15min,AgWx,beryljct,423,19AUG2018:18:00:00,89.4,13.3,82.7,81.4,83.1,84.5,81.4,43,49,35,1.774,58.5,61.0,53.8,3.42,4.1,110,5.9,5.2,0.00313,0.00391,82.1,76.0,15,406,0,91.3,16.46,0.00,0.00
15min,AgWx,beryljct,423,19AUG2018:18:15:00,88.3,13.3,80.0,79.9,80.3,81.2,78.8,49,60,44,1.537,59.5,65.2,55.9,4.516,4.1,114,5.7,5.6,0.00213,0.00276,82.3,76.1,15,287,0,86.8,16.46,0.00,0.00
15min,AgWx,beryljct,423,19AUG2018:18:30:00,86.9,13.35,82.5,82.9,82.3,85.3,79.9,40,50,22,1.758,55.0,62.9,41.1,2.214,3.6,109,2.5,4.9,0.00213,0.00281,82.5,76.3,15,285,0,86.1,16.46,0.00,0.00
15min,AgWx,beryljct,423,19AUG2018:18:45:00,86.5,13.29,82.3,82.5,82.5,83.4,81.8,49,53,43,1.749,61.1,63.3,58.0,3.573,2.9,127,10,4.0,0.00178,0.00227,82.7,76.4,15,256,0,86.5,16.46,0.00,0.00
15min,AgWx,beryljct,423,19AUG2018:19:00:00,85.7,13.26,80.6,78.0,81.2,82.9,77.9,47,59,39,1.798,59.1,62.4,55.5,3.354,3.3,137,4.2,4.1,0.00105,0.00155,82.7,76.6,15,149,0,82.8,16.46,0.00,0.00
15min,AgWx,beryljct,423,19AUG2018:19:15:00,83.9,13.21,85.1,85.9,84.2,86.1,78.1,23,53,17,0.776,41.1,59.4,36.3,0.877,2.0,131,0.0,3.3,0.00008,0.00049,82.8,76.7,15,62,0,81.7,16.47,0.00,0.00
15min,AgWx,beryljct,423,19AUG2018:19:30:00,82.6,13.19,82.0,78.4,83.0,86.0,77.9,29,48,18,1.323,45.6,56.9,37.3,1.491,0.9,131,0.0,1.6,-0.00007,-0.00007,82.8,76.9,15,50,0,81.2,16.47,0.00,0.00
15min,AgWx,beryljct,423,19AUG2018:19:45:00,81.2,13.18,77.9,77.6,78.2,79.2,77.2,41,50,36,1.603,52.6,57.3,49.0,0.877,1.1,132,0.4,2.0,0.00009,0.00016,82.7,77.0,15,70,0,77.1,16.47,0.00,0.00
15min,AgWx,beryljct,423,19AUG2018:20:00:00,80.0,13.15,77.7,77.6,77.7,78.6,76.7,40,53,33,1.254,51.6,58.9,46.7,1.6,2.8,189,12,4.5,0.00030,0.00048,82.6,77.1,15,50,0,76.7,16.47,0.00,0.00
15min,AgWx,beryljct,423,19AUG2018:20:15:00,78.9,13.13,76.5,79.3,76.4,79.3,74.0,41,55,24,0.939,50.7,57.3,39.1,2.762,2.2,195,4.6,3.2,0.00010,0.00020,82.4,76.8,15,21,0,75.2,16.47,0.00,0.00
15min,AgWx,beryljct,423,19AUG2018:20:30:00,77.4,13.12,73.8,75.4,74.1,79.1,72.4,48,59,27,0.909,52.6,58.0,39.1,1.907,2.1,206,0.1,3.1,-0.00001,0.00004,82.2,76.9,15,4,0,72.7,16.47,0.00,0.00
15min,AgWx,beryljct,423,19AUG2018:20:45:00,76.0,13.12,74.4,75.4,74.5,76.3,72.4,39,54,26,1.195,47.5,56.0,38.9,2.192,2.2,206,0.1,3.2,0.00002,0.00009,82.0,77.5,16,1,0,72.3,16.47,0.00,0.00
15min,AgWx,beryljct,423,19AUG2018:21:00:00,74.7,13.11,72.9,72.3,73.3,75.3,70.7,42,59,29,1.392,48.6,56.1,40.0,1.776,1.6,206,0.0,2.5,-0.00011,-0.00012,81.7,77.6,16,0,0,70.9,16.47,0.00,0.00
15min,AgWx,beryljct,423,19AUG2018:21:15:00,73.4,13.09,71.3,72.0,71.4,72.9,69.7,47,60,33,1.180,50.0,56.0,41.9,4.034,1.2,203,36,4.8,-0.00018,-0.00023,81.4,77.1,16,0,0,68.1,16.48,0.00,0.00
15min,AgWx,beryljct,423,19AUG2018:21:30:00,72.1,13.07,68.2,66.2,68.9,71.7,66.2,50,59,36,1.293,49.0,52.6,43.3,0,3.0,10,56,4.8,0.00008,0.00016,81.1,77.7,16,0,0,66.7,16.48,0.00,0.00
15min,AgWx,beryljct,423,19AUG2018:21:45:00,70.9,13.07,68.0,65.3,68.0,72.0,64.8,47,59,33,1.125,46.6,51.5,41.2,1.162,3.6,347,41,6.0,0.00016,0.00028,80.8,77.7,16,0,0,66.1,16.48,0.00,0.00
15min,AgWx,beryljct,423,19AUG2018:22:00:00,70.1,13.07,70.9,71.1,70.1,75.4,65.3,38,53,23,0.870,42.7,47.8,34.8,0,1.9,221,22,4.9,-0.00004,-0.00000,80.5,77.8,16,0,0,66.7,16.48,0.00,0.00
15min,AgWx,beryljct,423,19AUG2018:22:15:00,69.8,13.05,72.5,71.3,72.4,74.6,70.9,31,40,23,0.836,39.9,46.8,33.3,5.13,2.6,268,22,7.5,0.00009,0.00019,80.2,77.8,16,0,0,68.0,16.48,0.00,0.00
15min,AgWx,beryljct,423,19AUG2018:22:30:00,69.8,13.06,71.0,71.7,70.9,75.9,67.6,31,43,20,0.628,38.4,45.1,31.0,3.135,4.5,312,54,7.4,0.00040,0.00062,79.8,77.8,16,0,0,68.8,16.47,0.00,0.00
15min,AgWx,beryljct,423,19AUG2018:22:45:00,69.6,13.04,69.7,69.0,70.1,73.4,65.3,34,50,22,0.881,39.3,46.6,32.2,1.359,2.4,293,23,4.9,0.00007,0.00016,79.5,77.8,16,0,0,67.6,16.47,0.00,0.00
15min,AgWx,beryljct,423,19AUG2018:23:00:00,68.9,13.01,68.1,66.9,68.2,70.7,65.8,36,50,26,0.856,39.8,47.3,34.2,1.732,1.0,224,59,5.9,-0.00023,-0.00032,79.2,77.8,16,0,0,65.3,16.47,0.00,0.00
15min,AgWx,beryljct,423,19AUG2018:23:15:00,67.9,13.01,66.3,62.6,66.7,69.0,62.6,40,59,27,1.123,40.7,49.5,33.2,1.556,2.3,183,20,5.3,0.00000,0.00006,78.9,77.8,16,0,0,63.6,16.47,0.00,0.00
15min,AgWx,beryljct,423,19AUG2018:23:30:00,66.9,13.01,66.9,68.7,66.1,69.0,62.6,40,61,27,0.693,40.6,49.8,33.7,0,0.6,202,30,3.1,-0.00029,-0.00042,78.6,77.7,16,0,0,62.7,16.47,0.00,0.00
15min,AgWx,beryljct,423,19AUG2018:23:45:00,66.0,13,65.2,62.3,65.8,68.9,62.0,44,61,28,1.060,42.6,48.8,34.5,0,0.3,203,0.2,1.4,-0.00036,-0.00056,78.2,77.7,16,0,0,61.9,16.48,0.00,0.00
15min,AgWx,beryljct,423,20AUG2018:00:00:00,65.1,13,64.6,63.1,64.4,65.9,62.2,44,55,35,0.811,41.8,46.2,37.1,5.985,2.0,308,41,6.1,-0.00007,-0.00005,77.9,77.6,16,0,0,61.0,16.48,0.00,0.00
15min,AgWx,beryljct,423,20AUG2018:00:15:00,64.4,12.97,62.8,61.1,62.9,64.4,60.7,45,58,35,0.955,41.0,45.9,36.3,1.556,3.0,301,6.9,6.1,0.00008,0.00016,77.6,77.6,16,0,0,61.2,16.48,0.00,0.00
15min,AgWx,beryljct,423,20AUG2018:00:30:00,63.7,12.97,62.9,62.4,62.6,64.4,61.2,47,55,37,0.949,41.9,46.5,37.7,0,0.8,302,0.0,2.3,-0.00026,-0.00037,77.3,77.5,16,0,0,59.3,16.48,0.00,0.00
15min,AgWx,beryljct,423,20AUG2018:00:45:00,63.3,12.97,65.1,64.4,64.7,65.7,62.5,37,48,33,0.711,37.8,42.8,35.2,2.368,2.1,309,4.0,4.0,-0.00002,0.00002,77.0,77.4,16,0,0,60.8,16.48,0.00,0.00
15min,AgWx,bigpiney,439,19AUG2018:01:00:00,51.7,12.77,46.2,46.6,47.4,48.4,46.6,66,68,65,0.722,36.7,37.1,36.2,2.148,4.0,349,13,6.0,0.00006,0.00010,55.5,54.3,42,0,0,0.0,.,0.00,0.00
15min,AgWx,bigpiney,439,19AUG2018:01:15:00,51.2,12.76,46.0,46.0,46.5,46.9,46.0,67,69,66,0.721,36.3,36.5,36.0,4.012,3.3,306,20,4.5,0.00002,0.00005,55.4,54.3,42,0,0,0.0,.,0.00,0.00
15min,AgWx,bigpiney,439,19AUG2018:01:30:00,50.5,12.75,44.9,45.2,45.3,46.0,44.7,71,73,68,0.739,36.6,37.1,36.0,4.823,4.1,266,9.7,5.2,0.00003,0.00006,55.4,54.4,42,0,0,0.0,.,0.00,0.00
15min,AgWx,bigpiney,439,19AUG2018:01:45:00,49.9,12.74,43.8,43.9,44.7,45.6,43.9,72,74,70,0.709,36.3,36.8,35.7,4.735,4.6,249,6.8,6.9,0.00004,0.00007,55.4,54.3,42,0,0,0.0,.,0.00,0.00
15min,AgWx,bigpiney,439,19AUG2018:02:00:00,49.1,12.74,42.7,42.4,42.4,43.8,41.3,76,79,73,0.704,35.5,36.2,34.8,4.406,4.4,239,6.3,5.6,0.00001,0.00003,55.3,54.3,42,0,0,0.0,.,0.00,0.00
15min,AgWx,bigpiney,439,19AUG2018:02:15:00,48.3,12.72,43.3,42.9,42.7,43.1,42.3,75,76,74,0.702,35.5,35.8,35.2,3.727,4.3,240,4.0,5.2,0.00002,0.00004,55.2,54.3,42,0,0,0.0,.,0.00,0.00
15min,AgWx,bigpiney,439,19AUG2018:02:30:00,47.6,12.7,46.9,46.7,45.2,46.8,42.8,68,75,63,0.682,35.3,36.0,34.7,4.187,3.4,278,13,4.8,0.00002,0.00005,55.2,54.3,42,0,0,0.0,.,0.00,0.00
15min,AgWx,bigpiney,439,19AUG2018:02:45:00,47.3,12.71,39.9,45.3,46.3,46.9,45.3,63,65,62,0.640,34.5,34.9,33.2,4.757,4.0,301,36,5.2,0.00007,0.00012,55.1,54.2,42,0,0,0.0,.,0.00,0.00
15min,AgWx,bigpiney,439,19AUG2018:03:00:00,47.0,12.69,39.8,39.7,41.3,44.6,38.3,74,82,62,0.670,33.5,35.2,30.7,1.162,3.0,118,25,5.6,-0.00002,-0.00001,55.1,54.3,42,0,0,0.0,.,0.00,0.00
15min,AgWx,bigpiney,439,19AUG2018:03:15:00,46.4,12.68,38.5,37.6,39.1,41.1,37.5,81,85,77,0.647,33.8,35.1,32.8,3.595,2.7,127,21,5.0,-0.00006,-0.00007,55.0,54.2,42,0,0,0.0,.,0.00,0.00
15min,AgWx,bigpiney,439,19AUG2018:03:30:00,45.5,12.67,41.6,40.6,39.8,40.7,37.7,82,86,78,0.696,34.6,35.3,33.7,3.266,3.5,164,9.4,4.5,-0.00004,-0.00004,55.0,54.2,42,0,0,0.0,.,0.00,0.00
15min,AgWx,bigpiney,439,19AUG2018:03:45:00,44.8,12.67,40.9,41.2,41.2,41.6,40.7,77,81,76,0.671,34.6,35.3,34.1,3.157,4.1,148,14,4.7,-0.00000,0.00001,54.9,54.2,42,0,0,0.0,.,0.00,0.00
15min,AgWx,bigpiney,439,19AUG2018:04:00:00,44.3,12.65,38.0,37.9,40.2,41.1,37.9,78,81,77,0.623,33.9,34.6,32.4,4.976,2.9,191,36,5.0,-0.00004,-0.00004,54.8,54.2,42,0,0,0.0,.,0.00,0.00
15min,AgWx,bigpiney,439,19AUG2018:04:15:00,43.6,12.65,37.1,36.3,37.1,38.5,36.1,83,86,80,0.623,32.5,33.7,31.9,5.042,4.4,226,5.9,5.3,-0.00002,-0.00002,54.7,54.2,42,0,0,0.0,.,0.00,0.00
15min,AgWx,bigpiney,439,19AUG2018:04:30:00,42.9,12.63,38.5,38.1,37.5,38.3,36.3,85,86,83,0.648,33.3,34.1,32.5,5.546,5.4,230,4.6,6.5,-0.00001,-0.00000,54.7,54.2,42,0,0,0.0,.,0.00,0.00
15min,AgWx,bigpiney,439,19AUG2018:04:45:00,42.5,12.62,38.6,38.5,38.1,38.5,37.8,84,85,83,0.653,33.6,33.9,33.3,4.582,5.9,234,5.4,6.5,0.00000,0.00001,54.6,54.1,42,0,0,0.0,.,0.00,0.00
15min,AgWx,bigpiney,439,19AUG2018:05:00:00,42.3,12.61,39.3,38.6,37.6,38.6,36.7,85,86,82,0.662,33.3,34.3,32.6,5.042,4.7,225,19,5.7,-0.00002,-0.00002,54.5,54.1,42,0,0,0.0,.,0.00,0.00
15min,AgWx,bigpiney,439,19AUG2018:05:15:00,42.2,12.6,39.2,39.2,39.2,39.5,38.6,81,83,80,0.654,33.8,34.1,33.4,4.998,5.1,248,5.6,6.0,0.00000,0.00002,54.5,54.1,42,0,0,0.0,.,0.00,0.00
15min,AgWx,bigpiney,439,19AUG2018:05:30:00,42.2,12.59,39.9,39.5,39.0,39.5,38.6,80,81,79,0.651,33.5,33.7,33.2,4.626,4.7,250,7.8,5.8,-0.00000,0.00001,54.4,54.1,42,0,0,0.0,.,0.00,0.00
15min,AgWx,bigpiney,439,19AUG2018:05:45:00,42.2,12.57,38.8,38.6,38.6,39.5,37.7,80,83,79,0.642,33.1,33.6,32.6,4.757,4.9,240,5.2,6.6,0.00000,0.00002,54.3,54.1,42,0,0,0.0,.,0.00,0.00
15min,AgWx,bigpiney,439,19AUG2018:06:00:00,42.0,12.56,38.9,39.1,38.6,39.5,37.6,81,83,79,0.642,33.4,34.2,32.2,2.126,2.3,235,20,4.5,-0.00007,-0.00009,54.2,54.0,42,0,0,0.0,.,0.00,0.00
15min,AgWx,bigpiney,439,19AUG2018:06:15:00,41.9,12.55,41.1,40.5,41.1,42.2,38.9,75,81,73,0.641,33.9,34.6,32.9,2.061,2.3,240,13,3.0,-0.00006,-0.00006,54.2,54.0,42,0,0,0.0,.,0.00,0.00
15min,AgWx,bigpiney,439,19AUG2018:06:30:00,41.6,12.55,34.0,34.2,36.0,40.5,34.2,81,85,74,0.565,30.8,33.5,30.0,1.798,2.7,209,5.5,3.9,-0.00005,-0.00006,54.1,54.0,42,1,0,0.0,.,0.00,0.00
15min,AgWx,bigpiney,439,19AUG2018:06:45:00,40.9,12.53,34.5,33.7,33.5,34.2,33.2,87,88,85,0.575,29.9,30.5,29.5,0.855,1.0,192,13,2.1,-0.00011,-0.00015,54.0,53.9,42,7,0,0.0,.,0.00,0.00
15min,AgWx,bigpiney,439,19AUG2018:07:00:00,40.2,12.56,34.0,33.7,33.9,34.3,33.3,87,89,86,0.582,30.5,31.0,29.9,2.302,2.2,162,19,3.8,-0.00020,-0.00018,53.9,53.9,42,23,0,0.0,.,0.00,0.00
15min,AgWx,bigpiney,439,19AUG2018:07:15:00,39.8,12.61,35.0,34.6,34.2,34.6,33.6,89,90,89,0.608,31.3,31.9,30.6,4.801,4.1,190,9.9,5.1,-0.00004,0.00000,53.9,53.9,42,49,0,0.0,.,0.00,0.00
15min,AgWx,bigpiney,439,19AUG2018:07:30:00,39.8,12.64,38.4,37.5,35.6,37.5,34.6,89,90,89,0.672,32.8,34.4,31.9,5.13,4.7,213,7.8,5.9,0.00011,0.00018,53.8,53.9,42,81,0,0.0,.,0.00,0.00
15min,AgWx,bigpiney,439,19AUG2018:07:45:00,40.5,12.72,42.5,41.7,39.9,41.7,37.5,84,88,81,0.725,35.5,36.3,34.4,5.634,5.4,233,7.4,6.9,0.00034,0.00046,53.7,53.8,42,120,0,0.0,.,0.00,0.00
15min,AgWx,bigpiney,439,19AUG2018:08:00:00,42.0,12.82,45.1,44.7,43.2,44.7,41.8,79,81,75,0.777,37.1,38.0,36.4,3.442,4.7,237,7.0,7.0,0.00059,0.00075,53.6,53.8,42,163,0,0.0,.,0.00,0.00
15min,AgWx,bigpiney,439,19AUG2018:08:15:00,44.0,13.05,47.2,47.1,45.9,47.1,44.7,74,78,69,0.763,38.3,39.0,37.6,2.433,3.0,209,17,5.1,0.00083,0.00099,53.6,53.8,42,209,0,0.0,.,0.00,0.00
15min,AgWx,bigpiney,439,19AUG2018:08:30:00,45.9,13.33,48.6,48.8,47.9,48.8,47.0,71,74,68,0.830,38.8,40.3,37.5,2.543,1.6,180,20,3.1,0.00108,0.00122,53.5,53.8,42,256,0,0.0,.,0.00,0.00
15min,AgWx,bigpiney,439,19AUG2018:08:45:00,47.9,13.55,50.4,49.8,49.3,49.9,48.7,70,72,67,0.852,39.9,41.0,38.4,0.811,2.0,132,21,3.9,0.00138,0.00157,53.4,53.7,42,306,0,0.0,.,0.00,0.00